LO-87
1 41557U 16033B 17322.30383758 .00002733 00000-0 10348-3 0 9991
2 41557 97.4539 41.7894 0014131 176.7326 183.4008 15.27709392 81958
NuSat2
1 41558U 16033C 17322.28834493 .00002801 00000-0 10655-3 0 9993
2 41558 97.4568 41.8445 0013609 175.3238 184.8130 15.27535848 81943
Lapan A3
1 41603U 16040E 17322.47370668 .00000378 00000-0 21036-4 0 9995
2 41603 97.4430 22.4553 0011845 256.1859 162.3473 15.19464328 78081
Swayam
1 41607U 16040J 17322.39355549 .00002920 00000-0 13261-3 0 9996
2 41607 97.4431 23.0602 0012474 255.2316 104.7537 15.21517494 78048
Pratham
1 41783U 16059A 17322.12964756 .00000139 00000-0 36355-4 0 9998
2 41783 98.1488 21.7581 0034384 39.9558 320.4164 14.62879612 61102
AlSat 1N
1 41789U 16059G 17322.40047223 .00000135 00000-0 34759-4 0 9998
2 41789 98.1490 22.8271 0029271 32.9889 327.3132 14.64100817 61172
ScatSat
1 41790U 16059H 17322.14176209 .00000052 00000-0 24515-4 0 9995
2 41790 98.2914 8.4093 0018818 22.6262 337.5758 14.50848974 60583
TY-1
1 41844U 16066D 17322.49499883 .00001959 00000-0 87016-4 0 9999
2 41844 97.4065 327.3746 0017673 59.3432 62.7194 15.22594241 56810
CAS-2T
1 41845U 16066E 17322.54072187 .00000134 00000-0 30309-4 0 9997
2 41845 98.7698 341.8172 0367238 149.9308 212.3547 14.37827597 53678
Pegasus-1
1 41846U 16066F 17321.90342969 .00000535 00000-0 91239-4 0 9999
2 41846 098.7731 340.8397 0369363 153.6559 208.3943 14.37186253053555
STARS-C
1 41895U 98067KR 17321.52959591 .00085183 00000-0 52972-3 0 9999
2 41895 51.6349 334.3952 0003391 78.5375 281.6005 15.76231714 52036
Tancredo 1
1 41931U 98067KT 17290.98270503 .14164078 12479-4 76733-3 0 9998
2 41931 51.6104 115.9004 0006182 280.1451 79.8879 16.42240901 42996
TO-89
1 41932U 98067KU 17322.48543631 .00028126 00000-0 28057-3 0 9992
2 41932 51.6391 337.1388 0004885 103.2036 256.9505 15.65408904 47655
AOBA-V3LOX3
1 41935U 98067KX 17321.52231079 .00032034 00000-0 30540-3 0 9992
2 41935 051.6387 341.1928 0004262 098.1031 262.0448 15.66474743047619
OSNSAT
1 41939U 98067KZ 17322.26621782 .00167989 00000-0 73642-3 0 9990
2 41939 51.6336 325.7673 0006887 81.1204 279.0579 15.83580827 47131
EO-88
1 42017U 17008BX 17322.14741905 .00002926 00000-0 12477-3 0 9999
2 42017 97.4778 23.2126 0007693 51.5177 308.6749 15.23716954 41921
HAVELSAT
1 42700U 98067LH 17322.32086727 .00026386 00000-0 30517-3 0 9997
2 42700 51.6388 345.0151 0004037 165.2044 194.9069 15.61666447 28971
SOMP2
1 42701U 98067LJ 17322.47721045 .00026713 00000-0 31439-3 0 9991
2 42701 51.6386 344.5614 0004045 165.9214 194.1893 15.61204897 28988
Columbia
1 42702U 98067LK 17322.47542518 .00097501 00000-0 75026-3 0 9991
2 42702 51.6350 340.0188 0003240 99.2723 260.8641 15.71214682 28972
PHOENIX
1 42706U 98067LP 17322.33651085 .00023701 00000-0 27846-3 0 9998
2 42706 51.6386 345.1236 0001596 80.4799 279.6375 15.61328428 28887
X-CubeSat
1 42707U 98067LQ 17322.39426080 .00027035 00000-0 31296-3 0 9998
2 42707 51.6373 344.7471 0001681 77.6020 282.5162 15.61633729 28880
qbee
1 42708U 98067LR 17322.27489243 .00026290 00000-0 30702-3 0 9999
2 42708 51.6379 345.4510 0001682 80.4042 279.7142 15.61422126 28823
ZA-AeroSat
1 42713U 98067LU 17322.46803776 .00024180 00000-0 29539-3 0 9999
2 42713 51.6386 345.2491 0002930 79.6714 280.4609 15.60293128 28550
LINK
1 42714U 98067LV 17322.30404900 .00035056 00000-0 38245-3 0 9997
2 42714 51.6367 344.8888 0003316 69.6309 290.5041 15.63021461 28658
UPSat
1 42716U 98067LX 17322.55235614 .00032441 00000-0 36044-3 0 9990
2 42716 51.6383 343.5610 0002253 155.8301 204.2800 15.62594848 28711
SpaceCube
1 42717U 98067LY 17322.48270587 .00026966 00000-0 31598-3 0 9995
2 42717 51.6383 344.5946 0002499 160.6949 199.4139 15.61318237 27937
Hoopoe
1 42718U 98067LZ 17322.32521643 .00028597 00000-0 32626-3 0 9996
2 42718 51.6383 345.0428 0002432 154.5185 205.5929 15.61978579 27915
Challenger
1 42721U 98067MA 17322.52339511 .00041549 00000-0 43329-3 0 9997
2 42721 51.6370 343.3513 0004826 137.2840 222.8531 15.64085487 27658
NJUST-1
1 42722U 98067MB 17322.50182537 .00019510 00000-0 24269-3 0 9995
2 42722 51.6389 345.4708 0005909 151.4998 208.6320 15.59951595 27624
UNSW-EC0
1 42723U 98067MC 17322.29526373 .00032048 00000-0 36589-3 0 9991
2 42723 51.6392 345.5958 0005242 143.9085 216.2264 15.61887442 27589
DUTHsat
1 42724U 98067MD 17322.48139878 .00040554 00000-0 42976-3 0 9991
2 42724 51.6380 343.8324 0004035 136.9730 223.1580 15.63692045 27553
LO-90
1 42725U 98067ME 17322.48531266 .00025537 00000-0 30790-3 0 9994
2 42725 51.6389 345.3640 0004661 149.1868 210.9400 15.60597313 27536
nSIGHT1
1 42726U 98067MF 17322.40082383 .00011683 00000-0 15927-3 0 9990
2 42726 51.6399 347.0557 0005603 157.8038 202.3198 15.57990101 27500
QBITO
1 42728U 98067MH 17322.51202578 .00026263 00000-0 30934-3 0 9999
2 42728 51.6402 344.8060 0002204 139.0399 221.0760 15.61198551 27346
Aalto-2
1 42729U 98067MJ 17322.51089725 .00026236 00000-0 30846-3 0 9999
2 42729 51.6390 344.7876 0002130 136.6142 223.5020 15.61246824 27358
SUSat
1 42730U 98067MK 17322.39797806 .00025899 00000-0 30855-3 0 9997
2 42730 51.6386 345.5285 0002368 137.3263 222.7915 15.60909449 27322
i-INSPIRE II
1 42731U 98067ML 17322.47310054 .00028963 00000-0 32830-3 0 9993
2 42731 51.6375 344.5149 0006890 95.8880 264.2900 15.62118218 27396
PolyITAN-2-SAU
1 42732U 98067MM 17322.50279133 .00027950 00000-0 32605-3 0 9995
2 42732 51.6381 344.7163 0006907 97.0574 263.1205 15.61392276 27398
SNUSAT-1
1 42733U 98067MN 17322.33427118 .00026011 00000-0 31000-3 0 9990
2 42733 51.6385 345.8442 0006936 100.0273 260.1504 15.60875995 27367
ExAlta-1
1 42734U 98067MP 17322.35038336 .00032738 00000-0 37102-3 0 9995
2 42734 51.6375 345.1968 0007381 121.7939 238.3774 15.62052689 27328
Aoxiang-1
1 42735U 98067MQ 17322.49490102 .00020476 00000-0 25311-3 0 9999
2 42735 51.6382 345.4192 0006514 148.9890 211.1489 15.60078866 28756
BeEagleSat
1 42736U 98067MR 17322.35211363 .00023931 00000-0 29007-3 0 9990
2 42736 51.6381 345.9658 0006323 145.3806 214.7600 15.60489980 27424
Atlantis
1 42737U 98067MS 17322.47992182 .00081665 00000-0 69248-3 0 9998
2 42737 51.6344 341.5395 0004893 110.8097 249.3425 15.68943191 27384
CAS-4B
1 42759U 17034B 17322.40382161 .00000352 00000-0 35393-4 0 9999
2 42759 43.0188 160.2645 0008665 236.2382 189.2612 15.09104263 23609
CAS-4A
1 42761U 17034D 17322.60447943 .00000337 00000-0 34434-4 0 9992
2 42761 43.0173 159.0666 0008981 237.4627 241.3153 15.09179777 23625
UCLSat
1 42765U 17036A 17321.90894677 .00002589 00000-0 11880-3 0 9990
2 42765 097.4320 019.8712 0013710 096.7107 263.5690 15.21242673023178
NIUSat
1 42766U 17036B 17321.90204479 .00001834 00000-0 88296-4 0 9994
2 42766 097.4321 019.5814 0017842 083.8973 276.4295 15.19902278022431
LituanicaSAT 2
1 42768U 17036D 17321.87636471 .00003680 00000-0 17129-3 0 9990
2 42768 097.4327 019.6144 0017745 087.2028 273.1238 15.20418262022446
InflateSail
1 42770U 17036F 17245.93730135 .99999999 00000-0 73960-1 0 9995
2 42770 097.4262 306.2162 0014869 278.7167 080.9844 16.07641391010932
Aalto 1
1 42775U 17036L 17322.11923216 .00001572 00000-0 75237-4 0 9995
2 42775 97.4317 19.8983 0016022 84.0661 276.2400 15.20332378 22427
URSA MAIOR
1 42776U 17036M 17322.11507013 .00001638 00000-0 78132-4 0 9999
2 42776 97.4321 19.9094 0015875 84.3663 275.9382 15.20389858 22427
